• In Belarus
  • List of Countries
  • For 7 days
  • Water Temperature
  • Satellite Maps
  • Weather Map
  • Weather Widgets
  • user-avatar
    Login

    Hourly Weather Bulgan

    Today, 22 January, Tuesday

    Time Temperature Precipitation Wind Pressure Humidity
    00:00 -10°C° 0 mm 1 mps 625 mmHg 20%
    01:00 -10°C° 0 mm 1 mps 625 mmHg 20%
    02:00 -11°C° 0 mm 1 mps 625 mmHg 20%
    03:00 -11°C° 0 mm 1 mps 625 mmHg 20%
    04:00 -11°C° 0 mm 1 mps 625 mmHg 20%
    05:00 -11°C° 0 mm 1 mps 625 mmHg 21%
    06:00 -11°C° 0 mm 1 mps 625 mmHg 22%
    07:00 -13°C° 0 mm 2 mps 626 mmHg 25%
    08:00 -12°C° 0 mm 2 mps 626 mmHg 25%
    09:00 -12°C° 0 mm 2 mps 626 mmHg 25%
    10:00 -9°C° 0 mm 1 mps 626 mmHg 25%
    11:00 -8°C° 0 mm 1 mps 626 mmHg 24%
    12:00 -7°C° 0 mm 1 mps 626 mmHg 22%
    13:00 -6°C° 0 mm 1 mps 626 mmHg 21%
    14:00 -7°C° 0 mm 1 mps 626 mmHg 21%
    15:00 -7°C° 0 mm 1 mps 625 mmHg 20%
    16:00 -7°C° 0 mm 1 mps 625 mmHg 20%
    17:00 -8°C° 0 mm 1 mps 625 mmHg 20%
    18:00 -8°C° 0 mm 0 mps 625 mmHg 20%
    19:00 -9°C° 0 mm 1 mps 624 mmHg 19%
    20:00 -9°C° 0 mm 1 mps 624 mmHg 19%
    21:00 -9°C° 0 mm 1 mps 624 mmHg 19%
    22:00 -10°C° 0 mm 1 mps 624 mmHg 20%
    23:00 -10°C° 0 mm 1 mps 624 mmHg 21%

    Tomorrow, 23 January, Wednesday

    Time Temperature Precipitation Wind Pressure Humidity
    00:00 -10°C° 0 mm 1 mps 624 mmHg 22%
    01:00 -10°C° 0 mm 1 mps 624 mmHg 23%
    02:00 -13°C° 0 mm 2 mps 624 mmHg 24%
    03:00 -13°C° 0 mm 2 mps 625 mmHg 26%
    04:00 -14°C° 0 mm 2 mps 625 mmHg 28%
    05:00 -14°C° 0 mm 2 mps 626 mmHg 30%
    06:00 -15°C° 0 mm 2 mps 626 mmHg 32%
    07:00 -17°C° 0 mm 3 mps 627 mmHg 34%
    08:00 -16°C° 0 mm 3 mps 628 mmHg 39%
    09:00 -15°C° 0 mm 2 mps 629 mmHg 44%
    10:00 -14°C° 0 mm 2 mps 630 mmHg 49%
    11:00 -14°C° 0 mm 2 mps 630 mmHg 53%
    12:00 -13°C° 0 mm 2 mps 631 mmHg 58%
    13:00 -12°C° 0 mm 2 mps 631 mmHg 63%
    14:00 -12°C° 0 mm 2 mps 631 mmHg 66%
    15:00 -13°C° 0 mm 2 mps 631 mmHg 68%
    16:00 -13°C° 0 mm 2 mps 631 mmHg 71%
    17:00 -13°C° 0 mm 2 mps 632 mmHg 75%
    18:00 -14°C° 0 mm 2 mps 632 mmHg 78%
    19:00 -13°C° 0 mm 1 mps 632 mmHg 81%
    20:00 -13°C° 0 mm 1 mps 632 mmHg 82%
    21:00 -13°C° 0 mm 1 mps 633 mmHg 82%
    22:00 -13°C° 0 mm 1 mps 633 mmHg 83%
    23:00 -14°C° 0 mm 1 mps 633 mmHg 83%

    Day after tomorrow, 24 January, Thursday

    Time Temperature Precipitation Wind Pressure Humidity
    00:00 -14°C° 0 mm 1 mps 633 mmHg 83%
    01:00 -14°C° 0 mm 1 mps 633 mmHg 83%
    02:00 -14°C° 0 mm 1 mps 633 mmHg 83%
    03:00 -14°C° 0 mm 0 mps 633 mmHg 83%
    04:00 -14°C° 0 mm 0 mps 633 mmHg 83%
    05:00 -14°C° 0 mm 0 mps 633 mmHg 82%
    06:00 -15°C° 0 mm 0 mps 633 mmHg 82%
    07:00 -15°C° 0 mm 0 mps 633 mmHg 82%
    08:00 -14°C° 0 mm 0 mps 634 mmHg 80%
    09:00 -14°C° 0 mm 0 mps 634 mmHg 78%
    10:00 -13°C° 0 mm 0 mps 635 mmHg 75%
    11:00 -12°C° 0 mm 1 mps 635 mmHg 71%
    12:00 -11°C° 0 mm 1 mps 635 mmHg 66%
    13:00 -11°C° 0 mm 1 mps 635 mmHg 61%
    14:00 -11°C° 0 mm 1 mps 634 mmHg 64%
    15:00 -11°C° 0 mm 1 mps 634 mmHg 66%
    16:00 -12°C° 0 mm 1 mps 634 mmHg 68%
    17:00 -12°C° 0 mm 1 mps 634 mmHg 72%
    18:00 -13°C° 0 mm 1 mps 634 mmHg 76%
    19:00 -15°C° 0 mm 2 mps 634 mmHg 79%
    20:00 -16°C° 0 mm 2 mps 634 mmHg 80%
    21:00 -16°C° 0 mm 2 mps 634 mmHg 81%
    22:00 -16°C° 0 mm 2 mps 634 mmHg 81%
    23:00 -16°C° 0 mm 2 mps 634 mmHg 81%

    25 January, Friday

    Time Temperature Precipitation Wind Pressure Humidity
    00:00 -16°C° 0 mm 2 mps 634 mmHg 81%
    01:00 -17°C° 0 mm 2 mps 634 mmHg 81%
    02:00 -17°C° 0 mm 2 mps 633 mmHg 81%
    03:00 -15°C° 0 mm 1 mps 633 mmHg 81%
    04:00 -15°C° 0 mm 1 mps 633 mmHg 82%
    05:00 -15°C° 0 mm 1 mps 633 mmHg 81%
    06:00 -15°C° 0 mm 1 mps 633 mmHg 81%
    07:00 -15°C° 0 mm 1 mps 632 mmHg 81%
    08:00 -15°C° 0 mm 1 mps 632 mmHg 78%
    09:00 -14°C° 0 mm 1 mps 633 mmHg 75%
    10:00 -14°C° 0 mm 1 mps 633 mmHg 71%
    11:00 -13°C° 0 mm 1 mps 632 mmHg 67%
    12:00 -12°C° 0 mm 1 mps 632 mmHg 63%
    13:00 -11°C° 0 mm 1 mps 631 mmHg 58%
    14:00 -11°C° 0 mm 1 mps 631 mmHg 60%
    15:00 -11°C° 0 mm 1 mps 630 mmHg 61%
    16:00 -12°C° 0 mm 1 mps 630 mmHg 62%
    17:00 -12°C° 0 mm 1 mps 630 mmHg 63%
    18:00 -12°C° 0 mm 1 mps 630 mmHg 65%
    19:00 -13°C° 0 mm 1 mps 629 mmHg 66%
    20:00 -13°C° 0 mm 1 mps 629 mmHg 66%
    21:00 -13°C° 0 mm 1 mps 629 mmHg 66%
    22:00 -13°C° 0 mm 1 mps 629 mmHg 66%
    23:00 -13°C° 0 mm 1 mps 628 mmHg 64%

    26 January, Saturday

    Time Temperature Precipitation Wind Pressure Humidity
    00:00 -13°C° 0 mm 1 mps 628 mmHg 63%
    01:00 -13°C° 0 mm 1 mps 628 mmHg 62%
    02:00 -13°C° 0 mm 1 mps 627 mmHg 61%
    03:00 -15°C° 0 mm 2 mps 627 mmHg 60%
    04:00 -15°C° 0 mm 2 mps 626 mmHg 60%
    05:00 -15°C° 0 mm 2 mps 626 mmHg 62%
    06:00 -15°C° 0 mm 2 mps 626 mmHg 65%
    07:00 -16°C° 0 mm 3 mps 626 mmHg 68%
    08:00 -16°C° 0 mm 3 mps 626 mmHg 65%
    09:00 -16°C° 0 mm 4 mps 626 mmHg 62%
    10:00 -15°C° 0 mm 5 mps 626 mmHg 60%
    11:00 -15°C° 0 mm 6 mps 626 mmHg 55%
    12:00 -15°C° 0 mm 7 mps 626 mmHg 50%
    13:00 -15°C° 0 mm 8 mps 626 mmHg 46%
    14:00 -15°C° 0 mm 8 mps 626 mmHg 46%
    15:00 -15°C° 0 mm 7 mps 627 mmHg 47%
    16:00 -15°C° 0 mm 6 mps 627 mmHg 48%
    17:00 -16°C° 0 mm 6 mps 628 mmHg 50%
    18:00 -17°C° 0 mm 5 mps 628 mmHg 52%
    19:00 -16°C° 0 mm 4 mps 629 mmHg 55%
    20:00 -17°C° 0 mm 4 mps 629 mmHg 56%
    21:00 -16°C° 0 mm 3 mps 629 mmHg 57%
    22:00 -17°C° 0 mm 3 mps 629 mmHg 58%
    23:00 -17°C° 0 mm 3 mps 629 mmHg 60%

    27 January, Sunday

    Time Temperature Precipitation Wind Pressure Humidity
    00:00 -18°C° 0 mm 3 mps 629 mmHg 61%
    01:00 -17°C° 0 mm 2 mps 629 mmHg 62%
    02:00 -17°C° 0 mm 2 mps 629 mmHg 62%
    03:00 -18°C° 0 mm 2 mps 629 mmHg 61%
    04:00 -18°C° 0 mm 2 mps 629 mmHg 60%
    05:00 -18°C° 0 mm 2 mps 629 mmHg 58%
    06:00 -18°C° 0 mm 2 mps 629 mmHg 55%
    07:00 -18°C° 0 mm 2 mps 629 mmHg 52%
    08:00 -17°C° 0 mm 2 mps 629 mmHg 48%
    09:00 -17°C° 0 mm 2 mps 629 mmHg 44%
    10:00 -16°C° 0 mm 2 mps 630 mmHg 40%
    11:00 -15°C° 0 mm 2 mps 629 mmHg 36%
    12:00 -15°C° 0 mm 3 mps 629 mmHg 32%
    13:00 -13°C° 0 mm 3 mps 629 mmHg 28%
    14:00 -14°C° 0 mm 3 mps 628 mmHg 28%
    15:00 -13°C° 0 mm 2 mps 628 mmHg 29%
    16:00 -13°C° 0 mm 2 mps 627 mmHg 29%
    17:00 -14°C° 0 mm 2 mps 627 mmHg 29%
    18:00 -14°C° 0 mm 2 mps 627 mmHg 30%
    19:00 -16°C° 0 mm 3 mps 627 mmHg 30%
    20:00 -15°C° 0 mm 3 mps 627 mmHg 29%
    21:00 -15°C° 0 mm 3 mps 627 mmHg 29%
    22:00 -15°C° 0 mm 3 mps 626 mmHg 28%
    23:00 -15°C° 0 mm 3 mps 626 mmHg 29%
    Show more